TimeCDT,TemperatureF,Dew PointF,Humidity,Sea Level PressureIn,VisibilityMPH,Wind Direction,Wind SpeedMPH,Gust SpeedMPH,PrecipitationIn,Events,Conditions,WindDirDegrees,DateUTC
12:52 AM,50.0,43.0,77,29.83,-9999.0,WNW,6.9,-,N/A,,Unknown,300,2012-10-09 05:52:00
1:52 AM,48.9,44.1,83,29.83,-9999.0,West,9.2,-,N/A,,Unknown,260,2012-10-09 06:52:00
2:52 AM,50.0,42.1,74,29.86,-9999.0,West,10.4,-,N/A,,Unknown,270,2012-10-09 07:52:00
3:52 AM,50.0,39.9,68,29.86,-9999.0,WNW,10.4,-,N/A,,Unknown,300,2012-10-09 08:52:00
4:52 AM,48.9,30.0,48,29.88,-9999.0,NNW,18.4,25.3,N/A,,Unknown,330,2012-10-09 09:52:00
5:52 AM,46.9,27.0,46,29.92,-9999.0,NNW,16.1,23.0,N/A,,Unknown,330,2012-10-09 10:52:00
6:52 AM,46.0,26.1,46,29.94,-9999.0,NW,18.4,25.3,N/A,,Unknown,310,2012-10-09 11:52:00
7:52 AM,43.0,24.1,47,29.97,-9999.0,NW,15.0,21.9,N/A,,Unknown,320,2012-10-09 12:52:00
8:52 AM,44.1,24.1,45,29.99,-9999.0,WNW,8.1,-,N/A,,Unknown,290,2012-10-09 13:52:00
9:52 AM,46.9,24.1,41,30.00,-9999.0,NW,16.1,24.2,N/A,,Unknown,310,2012-10-09 14:52:00
10:52 AM,48.0,24.1,39,30.01,-9999.0,NW,24.2,34.5,N/A,,Unknown,320,2012-10-09 15:52:00
11:52 AM,48.9,21.9,35,30.02,-9999.0,NW,23.0,36.8,N/A,,Unknown,320,2012-10-09 16:52:00
12:52 PM,48.9,23.0,36,30.03,-9999.0,NW,23.0,31.1,N/A,,Unknown,310,2012-10-09 17:52:00
1:52 PM,50.0,23.0,35,30.03,-9999.0,NW,21.9,31.1,N/A,,Unknown,320,2012-10-09 18:52:00
2:52 PM,52.0,24.1,34,30.04,-9999.0,NNW,19.6,25.3,N/A,,Unknown,330,2012-10-09 19:52:00
3:52 PM,51.1,21.9,32,30.04,-9999.0,NW,24.2,31.1,N/A,,Unknown,320,2012-10-09 20:52:00
4:52 PM,48.9,23.0,36,30.06,-9999.0,NNW,13.8,26.5,N/A,,Unknown,330,2012-10-09 21:52:00
5:52 PM,48.9,21.0,33,30.07,-9999.0,NNW,16.1,27.6,N/A,,Unknown,330,2012-10-09 22:52:00
6:52 PM,46.0,21.9,39,30.09,-9999.0,NNW,12.7,-,N/A,,Unknown,340,2012-10-09 23:52:00
7:52 PM,43.0,19.0,38,30.12,-9999.0,NW,9.2,-,N/A,,Unknown,320,2012-10-10 00:52:00
8:52 PM,39.0,19.9,46,30.14,-9999.0,NW,5.8,-,N/A,,Unknown,310,2012-10-10 01:52:00
9:52 PM,37.0,19.9,50,30.15,-9999.0,WNW,5.8,-,N/A,,Unknown,300,2012-10-10 02:52:00
10:52 PM,35.1,19.0,52,30.16,-9999.0,West,8.1,-,N/A,,Unknown,280,2012-10-10 03:52:00
11:52 PM,32.0,21.0,64,30.16,-9999.0,West,10.4,-,N/A,,Unknown,260,2012-10-10 04:52:00